• In Belarus
  • List of Countries
  • For 7 days
  • Water Temperature
  • Satellite Maps
  • Weather Map
  • Weather Widgets
  • user-avatar
    Login

    Hourly Weather Etchmiadzin

    Today, 11 December, Tuesday

    Time Temperature Precipitation Wind Pressure Humidity
    00:00 +5°C° 0 mm 2 mps 685 mmHg 73%
    01:00 +5°C° 0 mm 2 mps 685 mmHg 73%
    02:00 +5°C° 0 mm 2 mps 685 mmHg 73%
    03:00 +4°C° 0 mm 2 mps 684 mmHg 75%
    04:00 +4°C° 0 mm 2 mps 685 mmHg 75%
    05:00 +4°C° 0 mm 2 mps 685 mmHg 75%
    06:00 +4°C° 0 mm 2 mps 685 mmHg 75%
    07:00 +4°C° 0 mm 3 mps 685 mmHg 72%
    08:00 +5°C° 0 mm 3 mps 684 mmHg 69%
    09:00 +7°C° 0 mm 3 mps 684 mmHg 66%
    10:00 +7°C° 0 mm 4 mps 684 mmHg 63%
    11:00 +8°C° 0 mm 4 mps 683 mmHg 60%
    12:00 +10°C° 0 mm 4 mps 683 mmHg 58%
    13:00 +10°C° 0.1 mm 4 mps 682 mmHg 57%
    14:00 +10°C° 0.1 mm 4 mps 682 mmHg 57%
    15:00 +10°C° 0.1 mm 4 mps 682 mmHg 57%
    16:00 +8°C° 0 mm 4 mps 682 mmHg 60%
    17:00 +8°C° 0 mm 3 mps 682 mmHg 63%
    18:00 +7°C° 0 mm 3 mps 682 mmHg 67%
    19:00 +7°C° 0.2 mm 3 mps 682 mmHg 68%
    20:00 +7°C° 0.2 mm 3 mps 682 mmHg 69%
    21:00 +7°C° 0.2 mm 2 mps 682 mmHg 70%
    22:00 +7°C° 0.6 mm 2 mps 683 mmHg 72%
    23:00 +7°C° 0.6 mm 3 mps 683 mmHg 75%

    Tomorrow, 12 December, Wednesday

    Time Temperature Precipitation Wind Pressure Humidity
    00:00 +7°C° 0.6 mm 3 mps 683 mmHg 77%
    01:00 +7°C° 0.5 mm 3 mps 683 mmHg 78%
    02:00 +7°C° 0.5 mm 3 mps 683 mmHg 79%
    03:00 +7°C° 0.5 mm 3 mps 683 mmHg 80%
    04:00 +7°C° 0.3 mm 3 mps 683 mmHg 80%
    05:00 +5°C° 0.3 mm 3 mps 683 mmHg 81%
    06:00 +5°C° 0.3 mm 3 mps 683 mmHg 81%
    07:00 +6°C° 0.2 mm 4 mps 682 mmHg 79%
    08:00 +6°C° 0.2 mm 4 mps 682 mmHg 76%
    09:00 +6°C° 0.2 mm 5 mps 682 mmHg 74%
    10:00 +7°C° 0.8 mm 5 mps 681 mmHg 74%
    11:00 +7°C° 0.8 mm 5 mps 680 mmHg 74%
    12:00 +7°C° 0.8 mm 6 mps 680 mmHg 73%
    13:00 +7°C° 1.2 mm 5 mps 679 mmHg 74%
    14:00 +8°C° 1.2 mm 5 mps 679 mmHg 74%
    15:00 +8°C° 1.2 mm 4 mps 678 mmHg 75%
    16:00 +7°C° 1.6 mm 4 mps 678 mmHg 76%
    17:00 +8°C° 1.6 mm 3 mps 679 mmHg 77%
    18:00 +8°C° 1.6 mm 3 mps 679 mmHg 79%
    19:00 +8°C° 1.4 mm 3 mps 679 mmHg 79%
    20:00 +8°C° 1.4 mm 3 mps 679 mmHg 80%
    21:00 +8°C° 1.4 mm 3 mps 679 mmHg 80%
    22:00 +8°C° 1.5 mm 3 mps 679 mmHg 81%
    23:00 +8°C° 1.5 mm 3 mps 679 mmHg 82%

    Day after tomorrow, 13 December, Thursday

    Time Temperature Precipitation Wind Pressure Humidity
    00:00 +7°C° 1.5 mm 3 mps 679 mmHg 82%
    01:00 +7°C° 1.7 mm 3 mps 679 mmHg 83%
    02:00 +7°C° 1.7 mm 3 mps 679 mmHg 84%
    03:00 +7°C° 1.7 mm 3 mps 680 mmHg 85%
    04:00 +5°C° 0.7 mm 3 mps 680 mmHg 84%
    05:00 +5°C° 0.7 mm 3 mps 680 mmHg 83%
    06:00 +4°C° 0.7 mm 4 mps 680 mmHg 83%
    07:00 +4°C° 0.1 mm 3 mps 681 mmHg 80%
    08:00 +5°C° 0.1 mm 3 mps 682 mmHg 78%
    09:00 +5°C° 0.1 mm 3 mps 683 mmHg 75%
    10:00 +7°C° 0.1 mm 3 mps 683 mmHg 71%
    11:00 +7°C° 0.1 mm 3 mps 683 mmHg 68%
    12:00 +7°C° 0.1 mm 4 mps 683 mmHg 64%
    13:00 +8°C° 0.1 mm 3 mps 683 mmHg 63%
    14:00 +8°C° 0.1 mm 3 mps 684 mmHg 62%
    15:00 +8°C° 0.1 mm 3 mps 684 mmHg 61%
    16:00 +5°C° 0 mm 3 mps 685 mmHg 63%
    17:00 +5°C° 0 mm 2 mps 686 mmHg 65%
    18:00 +4°C° 0 mm 2 mps 686 mmHg 67%
    19:00 +3°C° 0 mm 2 mps 687 mmHg 67%
    20:00 +3°C° 0 mm 2 mps 687 mmHg 67%
    21:00 +2°C° 0 mm 2 mps 688 mmHg 67%
    22:00 +2°C° 0 mm 2 mps 688 mmHg 67%
    23:00 +1°C° 0 mm 2 mps 688 mmHg 68%

    14 December, Friday

    Time Temperature Precipitation Wind Pressure Humidity
    00:00 +1°C° 0 mm 2 mps 688 mmHg 68%
    01:00 +1°C° 0 mm 2 mps 689 mmHg 68%
    02:00 -1°C° 0 mm 2 mps 689 mmHg 68%
    03:00 -1°C° 0 mm 2 mps 689 mmHg 68%
    04:00 -1°C° 0 mm 2 mps 689 mmHg 68%
    05:00 -1°C° 0 mm 2 mps 689 mmHg 69%
    06:00 -1°C° 0 mm 2 mps 690 mmHg 69%
    07:00 -1°C° 0 mm 2 mps 690 mmHg 68%
    08:00 +1°C° 0 mm 2 mps 690 mmHg 67%
    09:00 +2°C° 0 mm 2 mps 690 mmHg 66%
    10:00 +3°C° 0 mm 2 mps 690 mmHg 65%
    11:00 +4°C° 0 mm 2 mps 689 mmHg 64%
    12:00 +4°C° 0 mm 3 mps 689 mmHg 62%
    13:00 +4°C° 0.1 mm 3 mps 688 mmHg 63%
    14:00 +4°C° 0.1 mm 3 mps 688 mmHg 63%
    15:00 +5°C° 0.1 mm 3 mps 688 mmHg 64%
    16:00 +5°C° 0.1 mm 2 mps 688 mmHg 65%
    17:00 +4°C° 0.1 mm 2 mps 688 mmHg 67%
    18:00 +3°C° 0.1 mm 2 mps 688 mmHg 68%
    19:00 +3°C° 0.1 mm 2 mps 688 mmHg 68%
    20:00 +3°C° 0.1 mm 2 mps 689 mmHg 69%
    21:00 +3°C° 0.1 mm 2 mps 689 mmHg 69%
    22:00 +3°C° 0.1 mm 2 mps 689 mmHg 70%
    23:00 +2°C° 0.1 mm 2 mps 689 mmHg 70%

    15 December, Saturday

    Time Temperature Precipitation Wind Pressure Humidity
    00:00 +2°C° 0.1 mm 2 mps 689 mmHg 71%
    01:00 +2°C° 0.1 mm 2 mps 689 mmHg 71%
    02:00 +2°C° 0.1 mm 2 mps 690 mmHg 71%
    03:00 +2°C° 0.1 mm 2 mps 690 mmHg 72%
    04:00 +2°C° 0.1 mm 1 mps 690 mmHg 72%
    05:00 +2°C° 0 mm 1 mps 690 mmHg 72%
    06:00 +2°C° 0 mm 1 mps 690 mmHg 73%
    07:00 +3°C° 0 mm 1 mps 690 mmHg 72%
    08:00 +3°C° 0 mm 1 mps 691 mmHg 70%
    09:00 +4°C° 0 mm 1 mps 691 mmHg 69%
    10:00 +5°C° 0 mm 1 mps 691 mmHg 68%
    11:00 +5°C° 0 mm 2 mps 691 mmHg 67%
    12:00 +6°C° 0 mm 2 mps 691 mmHg 65%
    13:00 +6°C° 0 mm 2 mps 691 mmHg 65%
    14:00 +6°C° 0 mm 2 mps 690 mmHg 65%
    15:00 +6°C° 0 mm 2 mps 690 mmHg 64%
    16:00 +6°C° 0 mm 1 mps 691 mmHg 65%
    17:00 +5°C° 0 mm 1 mps 691 mmHg 65%
    18:00 +4°C° 0 mm 1 mps 691 mmHg 66%
    19:00 +3°C° 0 mm 1 mps 692 mmHg 66%
    20:00 +3°C° 0 mm 1 mps 692 mmHg 66%
    21:00 +3°C° 0 mm 1 mps 692 mmHg 66%
    22:00 +3°C° 0 mm 1 mps 692 mmHg 66%
    23:00 +3°C° 0 mm 1 mps 692 mmHg 66%

    16 December, Sunday

    Time Temperature Precipitation Wind Pressure Humidity
    00:00 +3°C° 0 mm 1 mps 692 mmHg 66%
    01:00 +3°C° 0 mm 1 mps 692 mmHg 66%
    02:00 +3°C° 0 mm 1 mps 692 mmHg 66%
    03:00 +3°C° 0 mm 1 mps 692 mmHg 66%
    04:00 +3°C° 0 mm 1 mps 692 mmHg 66%
    05:00 +3°C° 0 mm 1 mps 691 mmHg 66%
    06:00 +3°C° 0 mm 1 mps 691 mmHg 65%
    07:00 +4°C° 0 mm 1 mps 692 mmHg 65%
    08:00 +5°C° 0 mm 1 mps 692 mmHg 64%
    09:00 +6°C° 0 mm 1 mps 692 mmHg 63%
    10:00 +7°C° 0 mm 1 mps 692 mmHg 62%
    11:00 +8°C° 0 mm 1 mps 692 mmHg 61%
    12:00 +8°C° 0 mm 2 mps 691 mmHg 60%
    13:00 +8°C° 0 mm 2 mps 691 mmHg 60%
    14:00 +8°C° 0 mm 2 mps 691 mmHg 59%
    15:00 +9°C° 0 mm 1 mps 691 mmHg 59%
    16:00 +8°C° 0 mm 1 mps 691 mmHg 59%
    17:00 +7°C° 0 mm 1 mps 691 mmHg 59%
    18:00 +6°C° 0 mm 1 mps 691 mmHg 59%
    19:00 +5°C° 0 mm 1 mps 691 mmHg 59%
    20:00 +5°C° 0 mm 1 mps 691 mmHg 58%
    21:00 +5°C° 0 mm 1 mps 691 mmHg 58%
    22:00 +5°C° 0 mm 1 mps 691 mmHg 58%
    23:00 +4°C° 0 mm 1 mps 691 mmHg 58%
    Show more